Location: Unspecified
(0.0000°N, 0.0000°E)
Time: 01:16:51
(UTC+00:00)

Vanguard 2 - All Passes

Search period start: 21 October 2017 00:00
Search period end: 31 October 2017 00:00
Orbit: 554 x 2939 km, 32.9° (Epoch: 19 October)

Date Brightness Start Highest point End Pass type
(mag) Time Alt. Az. Time Alt. Az. Time Alt. Az.
21 Oct - 00:19:16 10° S 00:27:15 18° SSE 00:36:52 10° ESE visible
21 Oct - 02:26:29 10° SW 02:41:12 47° SE 02:57:55 10° ENE visible
21 Oct - 04:37:00 10° WSW 04:54:40 80° NW 05:10:52 10° NE visible
21 Oct - 06:52:53 10° W 07:07:46 33° NW 07:19:33 10° NNE daylight
21 Oct - 15:53:38 10° NW 15:57:41 53° NE 16:01:39 10° ESE daylight
21 Oct - 18:03:55 10° WSW 18:06:15 14° SSW 18:08:54 10° S visible
22 Oct - 00:36:35 10° SSW 00:46:21 23° SSE 00:58:28 10° ESE visible
22 Oct - 02:44:21 10° SW 02:59:45 60° SE 03:17:08 10° ENE visible
22 Oct - 04:55:42 10° WSW 05:13:08 65° NW 05:28:57 10° NE visible
22 Oct - 07:13:30 10° W 07:26:32 26° NNW 07:37:03 10° NNE daylight
22 Oct - 14:05:00 10° N 14:07:05 12° NNE 14:08:57 10° NE daylight
22 Oct - 16:11:44 10° WNW 16:15:49 69° SW 16:19:53 10° SE daylight
23 Oct - 00:54:02 10° SSW 01:05:11 30° SE 01:19:20 10° E visible
23 Oct - 03:02:23 10° SW 03:18:14 75° SE 03:35:58 10° ENE visible
23 Oct - 05:14:47 10° WSW 05:31:41 51° NW 05:46:52 10° NE visible
23 Oct - 07:34:49 10° WNW 07:45:34 20° NNW 07:54:28 10° NNE daylight
23 Oct - 14:21:40 10° NNW 14:25:37 22° NNE 14:28:52 10° E daylight
23 Oct - 16:30:19 10° W 16:33:57 32° SW 16:37:41 10° SSE daylight
23 Oct - 23:07:14 10° S 23:10:46 12° SSE 23:14:43 10° SE visible
24 Oct - 01:11:35 10° SSW 01:23:46 39° SE 01:39:32 10° E visible
24 Oct - 03:20:35 10° SW 03:36:41 89° NNW 03:54:29 10° NE visible
24 Oct - 05:34:18 10° W 05:50:19 41° NNW 06:04:40 10° NNE daylight
24 Oct - 07:56:51 10° NW 08:04:53 15° NNW 08:11:46 10° N daylight
24 Oct - 14:39:11 10° NW 14:44:00 40° NNE 14:47:48 10° ESE daylight
24 Oct - 16:49:36 10° WSW 16:52:11 16° SSW 16:54:51 10° S daylight
24 Oct - 23:23:22 10° S 23:29:49 16° SSE 23:37:45 10° ESE visible
25 Oct - 01:29:17 10° SW 01:42:13 51° SE 01:59:09 10° ENE visible
25 Oct - 03:39:02 10° WSW 03:55:10 73° NW 04:12:45 10° NE visible
25 Oct - 05:54:20 10° W 06:09:11 32° NNW 06:22:22 10° NNE daylight
25 Oct - 08:19:34 10° NW 08:24:28 12° NNW 08:28:52 10° N daylight
25 Oct - 12:49:19 10° N 12:52:41 14° NNE 12:55:28 10° NE daylight
25 Oct - 14:57:09 10° NW 15:02:12 82° NE 15:06:10 10° ESE daylight
25 Oct - 23:40:20 10° SSW 23:48:34 22° SE 23:59:24 10° E visible
26 Oct - 01:47:07 10° SW 02:00:35 65° SE 02:18:20 10° ENE visible
26 Oct - 03:57:47 10° WSW 04:13:45 59° NW 04:30:50 10° NE visible
26 Oct - 06:14:58 10° WNW 06:28:16 25° NNW 06:40:03 10° NNE daylight
26 Oct - 13:06:15 10° NNW 13:11:25 22° NNE 13:15:16 10° ENE daylight
26 Oct - 15:15:34 10° WNW 15:20:17 48° SW 15:24:08 10° SE daylight
26 Oct - 23:57:35 10° SSW 00:07:04 30° SE 00:20:11 10° E visible
27 Oct - 02:05:08 10° SW 02:18:56 81° SE 02:37:07 10° ENE visible
27 Oct - 04:16:54 10° W 04:32:28 47° NNW 04:48:46 10° NE visible
27 Oct - 06:36:12 10° WNW 06:47:39 20° NNW 06:57:46 10° NNE daylight
27 Oct - 11:15:53 10° N 11:18:47 12° NNE 11:21:19 10° NNE daylight
27 Oct - 13:23:47 10° NW 13:30:00 36° NNE 13:34:17 10° E daylight
27 Oct - 15:34:32 10° W 15:38:20 24° SW 15:41:37 10° SSE daylight
28 Oct - 00:15:04 10° SSW 00:25:24 40° SE 00:40:17 10° ENE visible
28 Oct - 02:23:22 10° WSW 02:37:21 82° NW 02:55:34 10° NE visible
28 Oct - 04:36:28 10° W 04:51:22 37° NNW 05:06:38 10° NNE visible
28 Oct - 06:57:56 10° NW 07:07:18 16° NNW 07:15:37 10° NNE daylight
28 Oct - 11:32:26 10° NNW 11:37:54 17° NNE 11:42:06 10° NE daylight
28 Oct - 13:41:42 10° NW 13:48:22 63° NNE 13:52:48 10° ESE daylight
28 Oct - 15:54:33 10° WSW 15:56:25 12° SW 15:58:12 10° S daylight
28 Oct - 22:27:57 10° S 22:32:42 14° SE 22:38:32 10° ESE night (unlit)
29 Oct - 00:32:42 10° SW 00:43:38 53° SE 00:59:48 10° ENE visible
29 Oct - 02:41:51 10° WSW 02:55:54 66° NW 03:13:50 10° NE visible
29 Oct - 04:56:32 10° W 05:10:29 30° NNW 05:24:28 10° NNE visible
29 Oct - 07:19:48 10° NW 07:27:11 14° NNW 07:33:48 10° NNE daylight
29 Oct - 09:40:03 10° NNW 09:43:43 12° N 09:46:57 10° NNE daylight
29 Oct - 11:49:43 10° NNW 11:56:49 24° NNE 12:01:48 10° ENE daylight
29 Oct - 14:00:00 10° WNW 14:06:32 72° SW 14:10:56 10° SE daylight
29 Oct - 22:44:30 10° S 22:51:11 21° SE 23:00:13 10° E night (unlit)
30 Oct - 00:50:33 10° SW 01:01:51 70° SE 01:18:52 10° ENE visible
30 Oct - 03:00:39 10° WSW 03:14:36 53° NNW 03:31:54 10° NE visible
30 Oct - 05:17:08 10° WNW 05:29:53 24° NNW 05:42:21 10° NNE visible
30 Oct - 07:41:08 10° NNW 07:47:13 13° N 07:52:41 10° NNE daylight
30 Oct - 09:57:12 10° NNW 10:03:15 15° NNE 10:08:07 10° NE daylight
30 Oct - 12:07:21 10° NW 12:15:34 35° NNE 12:20:52 10° E daylight
30 Oct - 14:18:43 10° WNW 14:24:32 39° SW 14:28:40 10° SSE daylight
30 Oct - 23:01:36 10° SSW 23:09:25 30° SE 23:20:51 10° E night (unlit)
